• In Portugal
  • List of Countries
  • For 7 days
  • Water Temperature
  • Satellite Maps
  • Weather Map
  • Weather Widgets
  • user-avatar
    Login

    Hourly Weather Megri

    Today, 19 September, Tuesday

    Time Temperature Precipitation Wind Pressure Humidity
    00:00 +17°C° 0 mm 2 mps 626 mmHg 23%
    01:00 +17°C° 0 mm 2 mps 626 mmHg 23%
    02:00 +16°C° 0 mm 2 mps 626 mmHg 24%
    03:00 +17°C° 0 mm 2 mps 626 mmHg 22%
    04:00 +16°C° 0 mm 2 mps 626 mmHg 22%
    05:00 +16°C° 0 mm 2 mps 626 mmHg 22%
    06:00 +16°C° 0 mm 2 mps 626 mmHg 21%
    07:00 +18°C° 0 mm 2 mps 626 mmHg 18%
    08:00 +21°C° 0 mm 2 mps 627 mmHg 15%
    09:00 +24°C° 0 mm 2 mps 629 mmHg 12%
    10:00 +25°C° 0 mm 1 mps 629 mmHg 11%
    11:00 +26°C° 0 mm 1 mps 629 mmHg 11%
    12:00 +28°C° 0 mm 1 mps 629 mmHg 11%
    13:00 +28°C° 0 mm 1 mps 629 mmHg 11%
    14:00 +28°C° 0 mm 1 mps 628 mmHg 11%
    15:00 +29°C° 0 mm 1 mps 628 mmHg 11%
    16:00 +27°C° 0 mm 2 mps 628 mmHg 13%
    17:00 +26°C° 0 mm 2 mps 627 mmHg 14%
    18:00 +24°C° 0 mm 2 mps 627 mmHg 16%
    19:00 +23°C° 0 mm 2 mps 626 mmHg 19%
    20:00 +21°C° 0 mm 2 mps 626 mmHg 21%
    21:00 +20°C° 0 mm 2 mps 626 mmHg 24%
    22:00 +19°C° 0 mm 2 mps 626 mmHg 26%
    23:00 +19°C° 0 mm 2 mps 626 mmHg 28%

    Tomorrow, 20 September, Wednesday

    Time Temperature Precipitation Wind Pressure Humidity
    00:00 +18°C° 0 mm 2 mps 626 mmHg 29%
    01:00 +17°C° 0 mm 2 mps 626 mmHg 31%
    02:00 +17°C° 0 mm 2 mps 626 mmHg 32%
    03:00 +16°C° 0 mm 2 mps 625 mmHg 33%
    04:00 +16°C° 0 mm 1 mps 625 mmHg 34%
    05:00 +16°C° 0 mm 1 mps 625 mmHg 35%
    06:00 +15°C° 0 mm 1 mps 625 mmHg 35%
    07:00 +19°C° 0 mm 1 mps 626 mmHg 30%
    08:00 +21°C° 0 mm 1 mps 627 mmHg 24%
    09:00 +24°C° 0 mm 1 mps 628 mmHg 18%
    10:00 +25°C° 0 mm 1 mps 628 mmHg 16%
    11:00 +26°C° 0 mm 1 mps 628 mmHg 15%
    12:00 +28°C° 0 mm 1 mps 629 mmHg 13%
    13:00 +28°C° 0 mm 1 mps 628 mmHg 13%
    14:00 +28°C° 0 mm 2 mps 628 mmHg 12%
    15:00 +29°C° 0 mm 2 mps 628 mmHg 12%
    16:00 +27°C° 0 mm 2 mps 627 mmHg 15%
    17:00 +26°C° 0 mm 2 mps 627 mmHg 18%
    18:00 +24°C° 0 mm 2 mps 626 mmHg 21%
    19:00 +23°C° 0 mm 2 mps 626 mmHg 25%
    20:00 +21°C° 0 mm 2 mps 626 mmHg 29%
    21:00 +20°C° 0 mm 2 mps 626 mmHg 33%
    22:00 +20°C° 0 mm 2 mps 626 mmHg 36%
    23:00 +19°C° 0 mm 2 mps 626 mmHg 38%

    Day after tomorrow, 21 September, Thursday

    Time Temperature Precipitation Wind Pressure Humidity
    00:00 +18°C° 0 mm 2 mps 625 mmHg 40%
    01:00 +18°C° 0 mm 2 mps 625 mmHg 41%
    02:00 +18°C° 0 mm 2 mps 625 mmHg 42%
    03:00 +17°C° 0 mm 2 mps 625 mmHg 43%
    04:00 +17°C° 0 mm 2 mps 625 mmHg 43%
    05:00 +16°C° 0 mm 2 mps 625 mmHg 43%
    06:00 +16°C° 0 mm 2 mps 625 mmHg 44%
    07:00 +18°C° 0 mm 2 mps 626 mmHg 37%
    08:00 +21°C° 0 mm 2 mps 627 mmHg 30%
    09:00 +24°C° 0 mm 2 mps 628 mmHg 22%
    10:00 +25°C° 0 mm 2 mps 628 mmHg 20%
    11:00 +27°C° 0 mm 1 mps 628 mmHg 18%
    12:00 +28°C° 0 mm 1 mps 628 mmHg 16%
    13:00 +28°C° 0 mm 2 mps 627 mmHg 16%
    14:00 +28°C° 0 mm 2 mps 627 mmHg 17%
    15:00 +29°C° 0 mm 2 mps 627 mmHg 17%
    16:00 +27°C° 0 mm 2 mps 626 mmHg 20%
    17:00 +26°C° 0 mm 2 mps 626 mmHg 23%
    18:00 +25°C° 0 mm 2 mps 626 mmHg 26%
    19:00 +24°C° 0 mm 2 mps 626 mmHg 28%
    20:00 +23°C° 0 mm 2 mps 626 mmHg 31%
    21:00 +21°C° 0 mm 2 mps 626 mmHg 34%
    22:00 +21°C° 0 mm 2 mps 625 mmHg 35%
    23:00 +20°C° 0 mm 2 mps 625 mmHg 37%

    22 September, Friday

    Time Temperature Precipitation Wind Pressure Humidity
    00:00 +20°C° 0 mm 2 mps 625 mmHg 38%
    01:00 +19°C° 0 mm 2 mps 625 mmHg 41%
    02:00 +18°C° 0 mm 2 mps 624 mmHg 43%
    03:00 +18°C° 0 mm 2 mps 624 mmHg 45%
    04:00 +17°C° 0 mm 2 mps 624 mmHg 46%
    05:00 +17°C° 0 mm 2 mps 624 mmHg 48%
    06:00 +17°C° 0 mm 2 mps 624 mmHg 49%
    07:00 +19°C° 0 mm 2 mps 625 mmHg 42%
    08:00 +21°C° 0 mm 2 mps 626 mmHg 35%
    09:00 +24°C° 0 mm 2 mps 626 mmHg 28%
    10:00 +25°C° 0 mm 2 mps 626 mmHg 25%
    11:00 +26°C° 0 mm 2 mps 626 mmHg 22%
    12:00 +28°C° 0 mm 2 mps 626 mmHg 19%
    13:00 +28°C° 0 mm 2 mps 626 mmHg 18%
    14:00 +28°C° 0 mm 2 mps 626 mmHg 18%
    15:00 +29°C° 0 mm 2 mps 626 mmHg 17%
    16:00 +27°C° 0 mm 2 mps 625 mmHg 21%
    17:00 +26°C° 0 mm 3 mps 625 mmHg 25%
    18:00 +24°C° 0 mm 3 mps 624 mmHg 29%
    19:00 +22°C° 0 mm 3 mps 624 mmHg 35%
    20:00 +21°C° 0 mm 3 mps 624 mmHg 41%
    21:00 +19°C° 0 mm 3 mps 624 mmHg 48%
    22:00 +19°C° 0 mm 3 mps 624 mmHg 50%
    23:00 +18°C° 0 mm 3 mps 624 mmHg 52%

    23 September, Saturday

    Time Temperature Precipitation Wind Pressure Humidity
    00:00 +18°C° 0 mm 3 mps 624 mmHg 55%
    01:00 +17°C° 0 mm 3 mps 624 mmHg 55%
    02:00 +17°C° 0 mm 2 mps 624 mmHg 55%
    03:00 +16°C° 0 mm 2 mps 624 mmHg 55%
    04:00 +16°C° 0 mm 2 mps 624 mmHg 54%
    05:00 +15°C° 0 mm 2 mps 624 mmHg 54%
    06:00 +15°C° 0 mm 2 mps 625 mmHg 54%
    07:00 +17°C° 0 mm 2 mps 625 mmHg 46%
    08:00 +19°C° 0 mm 2 mps 626 mmHg 39%
    09:00 +21°C° 0 mm 2 mps 627 mmHg 31%
    10:00 +23°C° 0 mm 2 mps 628 mmHg 29%
    11:00 +24°C° 0 mm 2 mps 628 mmHg 26%
    12:00 +26°C° 0 mm 2 mps 628 mmHg 23%
    13:00 +26°C° 0 mm 2 mps 628 mmHg 23%
    14:00 +26°C° 0 mm 2 mps 628 mmHg 22%
    15:00 +27°C° 0 mm 2 mps 627 mmHg 22%
    16:00 +25°C° 0 mm 3 mps 627 mmHg 26%
    17:00 +24°C° 0 mm 3 mps 627 mmHg 30%
    18:00 +22°C° 0 mm 3 mps 626 mmHg 35%
    19:00 +20°C° 0 mm 3 mps 626 mmHg 40%
    20:00 +19°C° 0 mm 3 mps 626 mmHg 45%
    21:00 +18°C° 0 mm 3 mps 626 mmHg 50%
    22:00 +17°C° 0 mm 3 mps 626 mmHg 51%
    23:00 +17°C° 0 mm 3 mps 626 mmHg 53%

    24 September, Sunday

    Time Temperature Precipitation Wind Pressure Humidity
    00:00 +16°C° 0 mm 2 mps 626 mmHg 54%
    01:00 +16°C° 0 mm 2 mps 626 mmHg 54%
    02:00 +16°C° 0 mm 2 mps 626 mmHg 55%
    03:00 +15°C° 0 mm 2 mps 626 mmHg 55%
    04:00 +15°C° 0 mm 2 mps 626 mmHg 55%
    05:00 +15°C° 0 mm 2 mps 626 mmHg 55%
    06:00 +15°C° 0 mm 2 mps 626 mmHg 55%
    07:00 +17°C° 0 mm 2 mps 627 mmHg 47%
    08:00 +19°C° 0 mm 2 mps 628 mmHg 40%
    09:00 +21°C° 0 mm 2 mps 628 mmHg 32%
    10:00 +23°C° 0 mm 2 mps 628 mmHg 29%
    11:00 +24°C° 0 mm 2 mps 629 mmHg 26%
    12:00 +25°C° 0 mm 2 mps 629 mmHg 23%
    13:00 +26°C° 0 mm 2 mps 628 mmHg 22%
    14:00 +26°C° 0 mm 2 mps 628 mmHg 21%
    15:00 +27°C° 0 mm 2 mps 628 mmHg 20%
    16:00 +25°C° 0 mm 3 mps 628 mmHg 24%
    17:00 +24°C° 0 mm 3 mps 627 mmHg 27%
    18:00 +21°C° 0 mm 3 mps 627 mmHg 31%
    19:00 +20°C° 0 mm 3 mps 627 mmHg 35%
    20:00 +19°C° 0 mm 3 mps 627 mmHg 40%
    21:00 +18°C° 0 mm 3 mps 627 mmHg 45%
    22:00 +17°C° 0 mm 3 mps 627 mmHg 47%
    23:00 +17°C° 0 mm 3 mps 627 mmHg 49%
    Show more